Home   Weather   Stockton   Past weeks

Flag for USA Past Weather in Stockton, California, USA — Yesterday and Last 2 Weeks

70 °F

Partly sunny.

Feels Like: 75 °F
Forecast: 55 / 78 °F
Wind: No wind

Location: Stockton Metropolitan Airport

Current Time: Oct 25, 2016 at 7:15:08 PM

Latest Report: Oct 25, 2016 at 5:55 PM

Visibility: 10 mi

Pressure: 30.00 "Hg

Humidity: 66%

Dew Point: 58 °F

Location of StocktonLocation

Past Weather in Stockton — Graph


Stockton Temperature Yesterday

Maximum temperature yesterday: 71 °F (at 12:55 PM)
Minimum temperature yesterday: 57 °F (at 6:55 AM)
Average temperature yesterday: 64 °F

High & Low Weather Summary for the Past Weeks

High82 °F (Oct 21, 3:55 PM)97% (Oct 15, 1:55 AM)30.21 "Hg (Oct 15, 1:55 AM)
Low48 °F (Oct 18, 5:55 AM)27% (Oct 19, 2:55 PM)29.71 "Hg (Oct 16, 2:55 PM)
Average63 °F67%29.98 "Hg
* Reported Oct 10 5:55 PM — Oct 25 5:55 PM, Stockton, Weather by CustomWeather, © 2016

Note: Actual official high and low records may vary slightly from our data, if they occured in-between our weather recording intervals... More about our weather records


Stockton Weather History for the Previous 24 Hours

Scroll right to see more
Time TempWeatherWind HumidityBarometerVisibility
5:55 PM
Tue, Oct 25
70 °FPartly sunny.No wind66%30.00 "Hg10 mi
4:55 PM71 °FOvercast.3 mph59%30.01 "Hg10 mi
3:55 PM72 °FMore clouds than sun.3 mph59%30.02 "Hg10 mi
2:55 PM71 °FOvercast.7 mph59%30.04 "Hg10 mi
1:55 PM69 °FMore clouds than sun.5 mph63%30.06 "Hg10 mi
12:55 PM66 °FLight rain. Cloudy.7 mph70%30.07 "Hg10 mi
11:55 AM67 °FMore clouds than sun.7 mph61%30.09 "Hg10 mi
10:55 AM64 °FOvercast.14 mph68%30.07 "Hg10 mi
9:55 AM62 °FLight rain. Overcast.12 mph75%30.08 "Hg10 mi
8:55 AM61 °FLight rain. Overcast.10 mph78%30.06 "Hg10 mi
7:55 AM59 °FOvercast.5 mph87%30.04 "Hg10 mi
6:55 AM59 °FLight rain. Overcast.6 mph87%30.03 "Hg10 mi
5:55 AM59 °FLight rain. Mostly cloudy.8 mph84%30.02 "Hg10 mi
4:55 AM61 °FLight rain. Mostly cloudy.12 mph75%30.01 "Hg10 mi
3:55 AM61 °FLight rain. Overcast.10 mph75%30.00 "Hg10 mi
2:55 AM63 °FMostly cloudy.15 mph68%30.01 "Hg10 mi
1:55 AM62 °FLight rain. Mostly cloudy.12 mph75%30.00 "Hg10 mi
12:55 AM61 °FLight rain. Overcast.8 mph81%30.00 "Hg9 mi
11:55 PM
Mon, Oct 24
61 °FLight rain. Overcast.5 mph83%30.00 "Hg10 mi
10:55 PM63 °FOvercast.No wind75%30.00 "Hg10 mi
9:55 PM62 °FLight rain. Overcast.9 mph78%29.98 "Hg10 mi
8:55 PM65 °FLight rain. Overcast.7 mph66%29.97 "Hg10 mi
7:55 PM68 °FPassing clouds.3 mph55%29.97 "Hg10 mi
Weather by CustomWeather, © 2016

See weather overviewHow to use our weather pages